Tracking 34410 objects as of 16-Jun-2026
HD Live streaming from Space Station
objects crossing your sky now

STARLINK-30378

Track STARLINK-30378 now!
10-day predictions
STARLINK-30378 is classified as:


NORAD ID: 57787
Int'l Code: 2023-134S
Perigee: 489.7 km
Apogee: 490.8 km
Inclination: 43.0 °
Period: 94.3 minutes
Semi major axis: 6861 km
RCS: Unknown
Launch date: September 4, 2023
Source: United States (US)
Launch site: AIR FORCE EASTERN TEST RANGE (AFETR)
Your satellite tracking list
Your tracking list is empty




NASA's NSSDC Master Catalog

Two Line Element Set (TLE):
1 57787U 23134S   26167.21895061 -.00000908  00000-0 -23495-4 0  9997
2 57787  43.0197 358.2049 0000812 280.2069  79.8692 15.27568457154572
Source of the keplerian elements: AFSPC